FW8396 Weather Reports


Display with metric or nautical units.
time (UTC)temp
F
wind
direction
speed
MPH
gust
MPH
rain 1hr
in
rain 24hr
in
rain mn
in
humidity
%
barometer
mb
20240301173021 61 0 0.0 4.0 0.00 0.00 0.00 63 1021.2
20240301171515 60 89 0.0 3.0 0.00 0.00 0.00 64 1021.4
20240301170013 59 140 1.0 4.0 0.00 0.00 0.00 63 1021.5
20240301164512 58 104 1.0 4.0 0.00 0.00 0.00 64 1021.8
20240301163012 57 102 1.0 6.0 0.00 0.00 0.00 65 1021.7
20240301161513 57 115 1.0 3.0 0.00 0.00 0.00 66 1021.4
20240301160012 56 61 2.0 6.0 0.00 0.00 0.00 66 1021.6
20240301154524 55 89 2.0 8.0 0.00 0.00 0.00 66 1021.7
20240301153013 55 64 3.0 6.0 0.00 0.00 0.00 66 1021.3
20240301151512 53 61 2.0 4.0 0.00 0.00 0.00 69 1022.0
20240301150015 53 64 1.0 3.0 0.00 0.00 0.00 69 1021.8
20240301144513 53 310 1.0 4.0 0.00 0.00 0.00 70 1022.0
20240301143011 52 337 1.0 6.0 0.00 0.00 0.00 70 1022.3
20240301141512 52 355 1.0 5.0 0.00 0.00 0.00 70 1022.0
20240301140013 52 302 0.0 4.0 0.00 0.00 0.00 71 1022.0
20240301134511 51 335 1.0 4.0 0.00 0.00 0.00 71 1021.9
20240301133016 51 327 1.0 4.0 0.00 0.00 0.00 71 1021.8
20240301131517 51 0 0.0 4.0 0.00 0.00 0.00 72 1021.8
20240301130023 51 313 2.0 5.0 0.00 0.00 0.00 72 1021.8
20240301124512 51 339 1.0 8.0 0.00 0.00 0.00 73 1021.8
20240301123013 51 360 1.0 7.0 0.00 0.00 0.00 73 1021.9
20240301121513 51 349 1.0 5.0 0.00 0.00 0.00 73 1021.6
20240301120011 51 273 1.0 6.0 0.00 0.00 0.00 74 1021.5
20240301114514 51 0 0.0 4.0 0.00 0.00 0.00 74 1021.6
20240301113016 51 268 2.0 8.0 0.00 0.00 0.00 73 1021.4
20240301111513 51 300 3.0 7.0 0.00 0.00 0.00 73 1021.7
20240301110011 51 277 1.0 7.0 0.00 0.00 0.00 72 1021.3
20240301104511 51 311 2.0 7.0 0.00 0.00 0.00 72 1021.0
20240301103015 51 355 2.0 6.0 0.00 0.00 0.00 71 1020.9
20240301101514 51 303 3.0 8.0 0.00 0.00 0.00 69 1021.1
20240301100012 52 305 2.0 8.0 0.00 0.00 0.00 66 1020.8
20240301094517 52 302 1.0 9.0 0.00 0.00 0.00 64 1021.0
20240301093012 52 308 1.0 7.0 0.00 0.00 0.00 62 1021.2
20240301091513 52 352 1.0 5.0 0.00 0.00 0.00 62 1021.4
20240301090012 52 327 2.0 5.0 0.00 0.00 0.00 62 1021.6
20240301084513 52 0 0.0 5.0 0.00 0.00 0.00 62 1021.6
20240301083011 52 307 2.0 8.0 0.00 0.00 0.00 62 1021.7
20240301081511 52 322 2.0 9.0 0.00 0.00 0.00 63 1021.6
20240301080018 52 5 1.0 8.0 0.00 0.00 0.00 63 1021.5
20240301074511 52 316 1.0 5.0 0.00 0.00 0.00 63 1021.6
20240301073011 52 16 1.0 5.0 0.00 0.00 0.00 63 1021.7
20240301071512 52 352 3.0 9.0 0.00 0.00 0.00 64 1021.8
20240301070010 52 331 2.0 6.0 0.00 0.00 0.00 64 1022.0
20240301064533 52 325 1.0 8.0 0.00 0.00 0.00 64 1022.1
20240301063014 52 318 2.0 7.0 0.00 0.00 0.00 64 1022.4
20240301061513 52 44 1.0 4.0 0.00 0.00 0.00 64 1022.3
20240301060013 52 47 1.0 8.0 0.00 0.00 0.00 63 1022.4
20240301054511 52 0 0.0 5.0 0.00 0.00 0.00 63 1022.8
20240301053022 52 322 2.0 8.0 0.00 0.00 0.00 62 1023.0
20240301051512 52 314 2.0 6.0 0.00 0.00 0.00 61 1023.3
20240301050014 53 55 1.0 6.0 0.00 0.00 0.00 61 1023.5
20240301044516 53 313 1.0 4.0 0.00 0.00 0.00 60 1023.7
20240301043014 53 316 2.0 8.0 0.00 0.00 0.00 60 1023.8
20240301041513 53 41 1.0 8.0 0.00 0.00 0.00 59 1024.1
20240301040017 53 67 0.0 7.0 0.00 0.00 0.00 58 1024.2
20240301034534 54 49 1.0 4.0 0.00 0.00 0.00 58 1024.1
20240301033014 54 328 0.0 7.0 0.00 0.00 0.00 58 1024.2
20240301031512 54 332 1.0 4.0 0.00 0.00 0.00 58 1024.0
20240301030013 54 331 2.0 8.0 0.00 0.00 0.00 57 1023.9
20240301024521 54 317 2.0 7.0 0.00 0.00 0.00 57 1023.9
20240301023109 54 0 0.0 8.0 0.00 0.00 0.00 57 1024.0
20240301021514 54 330 1.0 5.0 0.00 0.00 0.00 57 1024.0
20240301020026 54 314 0.0 7.0 0.00 0.00 0.00 57 1023.8
20240301014514 55 0 2.0 5.0 0.00 0.00 0.00 57 1023.6
20240301013011 54 349 1.0 5.0 0.00 0.00 0.00 58 1023.1
20240301011513 55 9 1.0 5.0 0.00 0.00 0.00 59 1022.8
20240301010013 55 346 2.0 5.0 0.00 0.00 0.00 59 1022.7
20240301004516 55 98 0.0 5.0 0.00 0.00 0.00 60 1022.5
20240301003021 55 49 1.0 4.0 0.00 0.00 0.00 59 1022.6
20240301001513 54 304 1.0 5.0 0.00 0.00 0.00 60 1022.5
20240301000011 54 308 1.0 7.0 0.00 0.00 0.00 60 1022.8
20240229234527 54 336 2.0 8.0 0.00 0.00 0.00 60 1022.5
20240229233014 54 59 1.0 6.0 0.00 0.00 0.00 60 1022.4
20240229231519 54 336 1.0 5.0 0.00 0.00 0.00 59 1022.5
20240229230015 54 60 1.0 9.0 0.00 0.00 0.00 58 1023.0
20240229224513 54 42 1.0 6.0 0.00 0.00 0.00 58 1022.7
20240229223013 54 47 2.0 5.0 0.00 0.00 0.00 58 1022.9
20240229221513 55 26 1.0 6.0 0.00 0.00 0.00 59 1022.9
20240229220014 55 5 3.0 12.0 0.00 0.00 0.00 59 1022.9
20240229214516 55 41 3.0 7.0 0.00 0.00 0.00 55 1023.2
20240229213011 56 53 2.0 8.0 0.00 0.00 0.00 54 1023.5
20240229211511 56 78 1.0 6.0 0.00 0.00 0.00 53 1023.4
20240229210012 56 74 2.0 5.0 0.00 0.00 0.00 53 1023.6
20240229204514 55 9 1.0 5.0 0.00 0.00 0.00 54 1023.9
20240229203014 55 355 1.0 6.0 0.00 0.00 0.00 56 1024.1
20240229201514 56 13 1.0 6.0 0.00 0.00 0.00 52 1024.3
20240229200013 56 303 1.0 4.0 0.00 0.00 0.00 51 1024.6
20240229194516 56 0 1.0 8.0 0.00 0.00 0.00 51 1024.8
20240229193011 56 60 2.0 5.0 0.00 0.00 0.00 50 1025.1
20240229191511 56 0 1.0 6.0 0.00 0.00 0.00 50 1025.4
20240229190012 57 323 1.0 6.0 0.00 0.00 0.00 50 1025.5
20240229184513 56 342 1.0 7.0 0.00 0.00 0.00 52 1025.6
20240229183019 56 38 2.0 6.0 0.00 0.00 0.00 51 1025.6
20240229181515 56 81 2.0 6.0 0.00 0.00 0.00 51 1025.6
20240229180011 56 47 2.0 10.0 0.00 0.00 0.00 51 1026.0
20240229174512 56 0 3.0 12.0 0.00 0.00 0.00 50 1025.7